Theta_e
303 303 302 301 300 300 300 301 301 301 301 300 301 301 302 303 304 305 306 306 307 307 308 308 308 307 307 305 302 301 300 301 302 302 303 306 305 307 311 312 311 310 308 309 309 309 310 312 312 312 315 316 316 317 318 319 319 317 317 315 314 315 315 317 318 318 318 320 319 320 321 321 321 320 321 320 321 320 321 333 333 331 337 339 340 341 348 350
304 303 304 303 302 302 302 301 300 300 298 297 297 297 298 298 300 301 303 305 305 306 307 308 308 307 308 306 304 302 300 301 303 303 305 306 305 306 309 311 312 311 309 308 308 309 312 315 314 314 315 316 317 317 318 319 319 317 318 316 314 315 316 317 318 318 318 319 319 320 320 321 321 320 322 320 323 321 321 336 342 344 350 348 347 348 350 350
303 303 303 303 303 303 303 303 303 302 301 299 298 298 297 297 297 298 299 301 303 305 306 307 308 307 307 307 305 303 302 303 304 305 307 307 306 306 308 310 311 311 309 308 308 309 313 315 315 315 315 316 317 317 317 318 318 318 318 317 315 316 317 317 318 318 318 319 319 320 321 321 321 320 322 321 324 327 323 337 350 352 353 352 351 350 350 349
303 303 302 302 303 303 303 303 303 303 303 302 301 300 299 298 297 296 296 298 300 303 305 306 307 307 308 307 306 305 303 306 308 308 310 309 308 306 306 308 310 311 309 308 308 309 312 313 313 314 315 315 316 316 316 317 317 318 318 317 317 317 316 317 318 318 318 319 319 319 321 321 321 321 322 320 323 329 327 335 349 351 351 352 351 351 349 348
302 302 302 302 302 302 302 302 302 303 303 303 302 301 301 300 299 297 296 296 297 300 303 305 306 306 307 307 307 305 305 311 312 312 313 312 311 309 307 307 308 310 310 308 307 308 311 311 312 313 314 314 315 315 315 316 317 317 318 317 318 318 317 318 318 318 318 318 319 318 320 320 321 321 321 321 321 326 327 331 343 345 344 348 349 350 349 348
300 300 301 302 302 302 302 302 301 301 301 302 303 302 302 302 301 299 297 297 296 297 300 303 305 306 307 307 307 306 307 314 313 311 312 311 310 310 309 309 308 309 310 309 307 308 310 311 312 313 314 314 314 314 315 316 317 316 317 317 318 318 317 318 318 319 319 318 318 319 319 319 320 320 320 320 321 325 324 329 342 343 340 343 347 349 349 349
300 300 299 299 300 300 300 300 300 300 300 300 301 302 302 302 302 301 300 298 297 296 297 301 303 305 306 306 307 307 306 311 310 310 311 310 310 309 309 309 308 308 308 308 307 307 309 311 312 313 313 313 314 314 315 316 316 316 316 317 318 319 318 319 319 319 318 318 319 319 319 318 319 319 319 319 320 323 320 327 342 345 345 347 349 350 349 349
301 301 301 300 299 298 297 298 298 299 299 299 299 300 301 302 302 302 301 300 298 297 296 298 302 304 306 306 307 308 307 309 309 310 310 310 309 309 309 308 307 307 307 307 306 307 309 311 312 313 312 313 314 314 315 315 315 316 316 317 318 319 319 319 319 319 318 319 319 320 320 318 319 319 319 319 319 322 319 327 345 348 349 350 350 350 350 349
301 301 301 302 301 301 300 299 298 298 297 298 298 299 300 302 302 302 302 301 299 298 296 296 300 303 305 306 307 307 308 308 308 309 310 310 309 309 309 308 307 307 306 306 306 308 310 311 312 313 313 313 314 315 315 315 314 315 316 316 317 318 319 319 319 319 318 318 320 320 320 319 320 319 318 319 318 322 318 327 346 350 350 351 350 350 350 349
301 301 301 301 301 302 301 301 300 299 299 298 298 297 298 300 302 302 302 302 300 299 297 296 299 303 305 307 307 307 308 305 307 309 310 309 309 309 309 309 309 309 308 306 306 308 310 311 312 313 313 313 314 315 315 315 315 315 316 316 317 318 318 319 318 318 318 318 320 320 320 319 320 318 318 319 319 321 318 329 348 350 350 351 350 350 350 349
301 301 301 301 301 301 301 302 301 301 300 300 299 297 296 297 300 302 302 302 301 299 298 297 298 302 305 307 307 307 305 305 309 310 310 310 310 309 309 309 309 311 312 309 307 308 310 310 312 313 313 313 313 314 315 315 315 315 316 316 317 317 318 318 318 318 318 318 319 319 320 319 319 318 317 318 319 321 317 331 350 351 350 351 350 351 350 349
301 301 302 302 302 302 301 301 302 301 301 300 299 298 296 296 297 300 301 301 300 300 299 297 297 300 304 306 307 307 302 303 308 309 309 309 309 309 310 310 309 310 313 314 311 309 309 310 311 312 312 313 313 313 314 315 316 316 315 315 316 317 316 317 317 318 318 318 319 319 319 318 319 318 318 318 318 321 317 330 350 350 349 351 351 352 350 349
301 301 301 302 301 301 301 301 301 301 301 301 300 299 297 296 295 297 300 300 300 300 300 298 297 299 303 306 306 304 301 302 304 305 308 309 309 310 309 309 309 309 310 313 315 312 310 310 311 311 312 313 312 313 314 315 316 316 316 315 314 315 315 317 317 318 317 318 319 319 316 317 318 317 318 319 318 320 316 328 348 350 349 351 351 351 349 346
301 301 301 301 301 301 301 300 301 301 301 301 301 300 298 296 296 296 297 299 299 300 300 299 298 298 302 305 304 301 300 303 303 304 307 308 308 309 309 309 309 309 309 310 313 314 312 311 311 311 312 312 312 313 314 315 315 315 316 315 314 314 315 317 317 317 317 317 319 319 315 315 318 317 319 318 318 321 316 326 344 346 345 345 344 341 339 337
301 301 301 301 301 301 300 300 300 300 301 301 301 300 299 297 296 295 296 297 299 300 300 300 298 299 303 304 302 300 301 305 305 304 305 306 307 309 309 309 309 309 309 310 311 313 312 312 312 311 312 312 312 312 312 313 314 315 315 313 314 314 315 317 318 318 318 317 319 318 315 316 318 318 319 320 318 318 320 332 341 339 339 341 340 337 336 337
301 301 301 301 301 300 300 300 299 299 300 301 301 300 298 298 297 295 295 296 298 300 300 301 299 300 303 304 302 302 304 306 305 304 305 306 307 309 309 309 310 309 309 310 311 311 312 312 312 312 312 312 312 312 312 313 314 315 314 314 314 314 314 316 317 318 317 317 318 317 316 317 318 321 328 329 321 324 334 337 337 336 336 338 341 340 340 341
301 301 301 301 301 301 301 300 299 299 300 301 301 299 298 297 297 295 294 295 298 300 301 302 302 302 304 303 303 304 304 304 303 303 305 307 307 308 309 309 309 309 309 310 310 310 311 311 313 312 312 312 311 311 312 312 313 314 314 314 315 314 314 314 315 317 317 317 317 317 318 316 323 332 337 336 333 336 337 335 336 336 335 337 341 342 341 342
301 301 301 301 301 301 301 299 299 300 300 300 300 299 298 297 297 297 295 294 298 301 301 302 302 303 304 303 304 305 304 304 304 304 305 307 308 308 308 308 309 309 309 309 310 310 310 311 313 313 312 311 311 311 312 312 313 315 315 315 314 314 314 313 315 316 316 317 316 318 317 315 330 343 339 339 340 337 336 336 336 336 337 338 340 341 340 341
301 301 301 301 300 300 299 297 298 300 300 300 299 299 298 298 300 301 298 297 300 303 303 302 302 302 303 303 304 305 305 306 306 306 307 308 309 308 308 308 308 309 309 309 309 309 310 311 314 314 312 310 311 310 312 313 313 315 315 315 314 313 314 314 316 317 317 317 315 317 316 317 337 347 342 340 340 337 336 336 335 336 337 337 338 338 340 342
301 301 301 300 300 299 297 295 297 299 299 299 298 299 299 299 301 303 302 301 301 303 302 302 302 302 302 301 302 303 306 307 306 308 308 309 309 309 308 308 308 308 309 309 309 310 310 312 314 313 311 310 311 311 312 314 314 315 315 314 314 313 314 315 316 317 317 317 315 317 315 320 339 347 343 340 338 338 336 336 335 335 337 337 338 339 340 341
301 301 300 299 299 297 294 294 297 298 299 298 298 299 300 300 300 301 302 302 302 302 303 302 303 303 303 303 303 303 305 306 306 307 308 309 309 309 308 308 308 307 308 310 310 310 310 312 313 313 312 311 311 312 313 314 313 314 315 314 314 313 314 316 317 317 317 317 316 317 315 322 340 344 342 342 340 340 337 336 335 335 337 337 339 340 339 340
301 301 300 299 300 296 293 294 296 297 297 297 298 299 300 300 300 300 300 301 302 302 303 303 303 303 304 304 304 304 305 305 305 306 308 309 309 309 308 308 307 307 309 310 310 311 310 311 313 313 312 311 312 312 313 314 314 314 314 314 314 314 315 315 317 316 317 318 316 317 315 322 339 343 341 343 341 339 338 338 337 336 337 336 340 340 337 338
301 301 299 299 300 296 293 295 296 297 298 298 299 299 300 300 300 300 300 300 301 301 302 303 303 304 304 304 303 304 304 305 306 307 308 308 308 309 308 307 307 308 309 310 310 311 311 311 312 313 312 311 312 313 313 313 314 314 314 314 313 314 314 314 317 317 317 319 318 319 315 318 335 342 342 342 339 338 337 337 337 337 338 337 340 340 337 337
300 301 299 299 301 298 293 295 298 300 300 300 301 300 301 301 300 300 300 301 301 301 302 302 303 304 304 304 303 304 304 305 306 307 308 308 308 308 308 307 308 308 309 310 310 312 312 312 312 312 312 312 312 313 313 313 314 314 314 314 313 314 314 314 317 317 317 320 319 319 314 316 334 344 344 342 339 338 337 336 336 337 337 337 339 339 337 335
300 301 299 299 301 298 293 297 300 301 300 301 301 301 301 301 301 301 301 301 301 302 302 302 303 304 304 303 304 304 304 304 306 307 308 309 308 308 308 308 308 309 309 310 311 312 313 312 312 312 312 313 313 313 313 313 313 314 314 314 314 314 315 315 317 318 316 317 318 319 314 316 333 343 342 342 340 337 336 334 335 335 335 335 336 338 337 335
300 300 300 298 300 298 294 299 300 299 300 301 301 301 301 301 301 301 301 301 301 301 302 302 303 303 304 304 305 304 304 304 305 306 307 308 308 308 309 309 309 309 310 311 311 312 312 312 312 312 312 313 313 312 312 313 313 313 314 315 315 314 315 315 316 317 316 318 319 320 317 317 331 338 338 341 341 338 336 334 333 334 334 335 335 335 337 336
299 300 299 298 300 298 295 299 300 299 301 301 301 301 301 301 301 302 302 302 302 302 302 302 302 303 304 305 305 304 304 305 306 306 307 308 309 308 308 308 309 309 310 312 312 313 313 312 311 312 313 312 312 312 312 313 312 312 314 315 315 315 314 315 316 316 319 321 319 318 318 318 329 339 337 340 341 340 339 335 334 334 335 336 336 335 335 335
299 300 299 298 299 298 297 300 301 300 301 300 300 301 301 301 301 302 302 302 304 304 303 302 302 303 304 304 304 304 305 306 306 307 308 308 309 309 307 308 309 309 310 311 312 313 313 312 311 311 312 312 312 312 313 313 312 313 315 315 315 315 315 316 317 317 318 319 316 317 317 313 325 342 341 340 341 342 342 337 335 336 335 336 337 337 336 334
301 300 300 299 298 299 299 301 301 301 301 300 300 301 301 301 301 302 301 302 304 304 304 303 302 303 303 304 304 303 304 305 306 308 308 308 309 309 308 308 309 310 310 311 312 313 313 313 312 312 312 312 313 313 313 314 313 314 315 316 315 316 318 317 318 317 316 318 317 317 316 312 326 343 342 339 341 340 341 338 335 335 335 336 337 337 337 334
301 301 301 300 299 299 300 300 301 301 301 300 300 301 302 301 301 302 301 302 303 304 305 303 302 303 303 304 304 304 304 304 305 308 308 308 309 309 309 308 309 309 310 310 311 313 313 313 313 312 312 312 314 314 314 314 315 316 315 315 316 317 319 318 320 318 315 320 320 316 315 313 325 341 340 338 340 338 338 337 335 334 334 335 336 336 337 334
301 301 301 301 300 300 299 299 301 302 301 301 301 301 302 302 302 302 302 302 302 305 305 303 303 305 305 304 304 304 303 304 305 306 308 308 308 309 309 309 309 310 310 310 311 312 313 313 313 313 313 313 314 314 314 314 315 315 314 315 315 317 316 315 318 318 317 322 320 316 317 312 318 335 339 336 336 336 337 337 335 334 333 333 334 335 336 335
301 301 301 301 300 300 299 299 301 302 301 301 301 301 302 302 302 302 302 302 303 305 305 304 305 306 306 306 305 304 303 304 304 306 307 308 308 308 308 309 309 309 310 311 311 312 312 313 313 314 314 314 314 314 314 315 314 314 314 314 315 315 315 315 317 318 319 322 319 314 317 314 316 331 338 335 334 334 336 337 335 335 333 332 333 334 336 336
302 301 301 301 300 300 300 299 300 301 301 301 301 302 302 303 304 303 302 303 305 305 304 305 305 305 306 306 306 304 303 304 304 305 307 308 309 309 308 309 309 310 311 312 312 312 313 313 312 314 314 314 314 314 313 313 313 313 313 314 316 315 314 316 318 319 320 322 320 315 316 316 315 324 334 335 334 333 334 335 335 336 334 333 333 334 336 337
302 302 301 301 300 300 301 301 301 301 301 301 302 302 303 303 304 304 303 305 306 305 305 306 305 305 306 306 307 305 303 304 304 305 307 308 308 309 309 309 308 309 312 313 313 313 314 314 313 313 314 314 315 313 313 314 313 314 313 314 317 317 319 320 318 318 319 319 318 317 315 316 318 324 332 334 333 332 332 334 335 335 334 333 334 335 336 337
302 303 303 303 302 302 302 302 301 301 301 301 302 303 303 304 304 305 305 305 305 305 305 305 305 305 306 306 306 306 305 304 305 306 308 308 308 309 309 308 308 309 311 314 314 313 313 313 312 314 314 313 314 314 315 314 313 314 314 313 315 318 323 323 318 319 321 319 320 320 317 320 325 330 331 331 333 332 332 334 335 335 334 333 334 335 335 335
303 304 304 304 304 303 303 302 302 302 301 302 302 303 303 304 304 305 305 305 304 305 305 305 306 306 307 307 306 307 306 306 306 307 308 308 308 308 309 309 309 309 310 315 316 313 314 314 313 314 314 313 314 314 314 315 314 315 314 312 315 318 320 320 319 319 320 321 323 321 317 321 326 329 330 332 334 332 332 335 335 335 335 333 333 335 334 334
303 304 305 305 305 304 303 303 302 302 302 302 303 303 303 303 304 305 305 305 305 304 305 306 307 307 308 307 306 307 306 306 307 308 308 308 308 308 309 309 310 310 310 313 315 315 317 317 314 314 314 313 315 314 314 315 315 315 313 313 316 316 317 322 322 317 317 321 323 318 316 318 319 323 330 334 333 331 332 336 337 336 335 334 334 334 334 334
304 305 305 305 305 305 304 303 303 303 302 302 303 303 303 303 305 305 305 304 305 305 305 306 307 307 308 307 307 307 307 306 308 308 308 308 309 309 309 310 311 311 311 312 314 316 318 317 314 313 315 314 314 315 315 315 314 314 314 315 317 318 318 320 321 319 319 319 320 320 318 318 318 322 328 330 331 333 334 337 338 337 337 336 335 335 335 334
304 305 305 305 305 305 304 303 303 303 303 303 303 303 304 304 305 306 305 304 304 305 306 307 307 307 307 308 308 307 307 307 307 309 308 307 308 309 309 310 311 312 312 312 315 319 319 320 317 313 314 315 314 315 314 315 314 313 315 315 316 319 319 318 319 321 321 320 320 320 318 319 323 326 328 328 331 334 335 337 337 336 337 337 337 337 335 335
304 305 305 305 304 304 304 304 303 303 303 304 303 303 304 304 305 306 306 305 305 305 306 306 306 307 307 309 309 308 307 307 307 308 308 307 308 309 309 310 311 312 313 312 315 318 319 322 319 314 314 315 313 314 314 314 313 312 315 315 313 316 317 318 319 318 319 322 322 320 320 325 329 329 328 328 331 335 335 336 336 335 337 338 338 338 336 336
304 305 306 305 305 305 304 304 304 304 304 304 303 304 304 304 305 305 306 306 305 306 306 306 306 307 307 309 309 309 308 307 307 308 309 307 308 309 309 310 311 312 313 312 314 319 322 324 321 316 315 314 313 314 314 313 313 313 316 315 315 316 315 316 318 315 316 322 323 322 325 331 333 328 328 328 331 333 333 333 335 335 336 339 339 339 338 339
305 306 305 305 304 304 304 304 304 304 304 304 304 305 305 306 305 305 306 306 306 306 306 306 306 307 307 308 309 310 309 309 307 308 310 308 308 310 310 310 312 311 313 313 315 321 325 325 321 316 314 313 314 314 313 314 314 314 316 316 316 317 315 317 322 321 316 318 322 320 322 333 344 338 331 330 330 331 332 332 334 334 336 339 339 339 340 340
304 305 305 304 304 304 304 304 304 304 305 305 305 305 306 306 306 306 306 306 306 307 307 307 307 307 308 309 310 311 310 310 309 308 310 309 309 310 310 311 311 311 313 315 316 319 321 321 319 316 314 314 314 314 314 314 314 314 315 315 314 315 316 322 330 329 320 318 322 318 316 331 351 344 333 331 328 328 331 332 333 334 336 338 338 339 340 340
304 304 304 304 304 304 304 305 305 305 305 305 305 305 305 306 307 306 307 307 307 308 308 308 308 309 310 310 310 311 311 311 310 309 310 310 310 311 311 311 311 311 313 316 318 319 318 320 321 318 316 315 314 315 315 314 314 316 316 315 315 316 315 319 324 323 321 321 324 322 320 331 346 340 332 334 334 332 331 331 334 336 336 338 338 338 339 339
304 304 305 304 304 303 303 304 304 304 305 305 304 305 305 306 307 307 307 307 307 308 308 308 309 309 310 311 311 311 310 311 311 309 310 311 311 311 311 311 311 311 314 317 317 317 319 322 324 323 320 318 316 314 314 314 314 316 317 315 315 315 313 319 323 322 322 321 321 326 331 336 341 337 331 336 341 338 334 333 334 336 337 338 338 338 339 339
304 305 305 304 304 303 302 302 302 303 304 304 305 305 306 306 306 306 307 308 308 308 308 308 309 309 310 311 312 312 310 310 310 310 311 312 313 312 311 312 312 310 314 318 317 317 319 321 322 323 323 321 317 314 315 315 314 315 316 314 315 315 315 321 326 326 326 322 318 326 336 336 334 333 334 337 341 340 338 336 335 335 337 338 338 338 338 339
305 305 304 304 304 303 303 302 302 302 303 304 305 305 306 305 305 307 308 308 308 308 308 308 309 310 312 313 313 313 311 310 311 311 312 313 314 313 311 312 312 311 317 321 317 318 321 320 320 322 323 320 316 315 316 316 314 315 316 315 316 316 317 319 323 327 333 329 322 328 338 337 331 332 338 340 339 339 339 337 335 336 337 338 338 338 338 338
305 304 303 303 303 303 303 303 302 302 303 303 304 305 305 305 305 307 309 310 309 309 309 311 311 311 313 313 313 314 313 314 315 314 314 314 314 314 312 312 312 314 319 319 317 321 324 322 321 321 321 319 316 316 316 315 314 315 316 318 318 316 318 322 323 327 334 335 331 333 338 338 332 332 338 340 338 337 337 336 336 336 336 337 337 336 336 337
303 303 303 303 303 303 303 303 302 302 302 303 303 304 304 305 306 307 309 311 311 310 311 314 314 312 312 312 314 317 317 318 318 317 315 316 317 315 313 314 316 317 317 317 318 323 324 322 320 319 321 322 320 317 315 313 314 315 315 318 319 318 321 325 325 326 330 331 333 335 334 334 332 331 336 337 334 334 334 334 335 336 336 336 336 335 335 335
302 302 303 303 303 303 304 304 302 302 303 303 304 305 305 305 306 307 309 312 313 313 313 314 314 314 313 313 317 320 319 318 319 320 319 319 319 317 314 315 317 316 316 318 321 323 324 323 320 318 319 321 323 322 319 314 314 316 316 316 319 319 320 322 322 324 325 323 327 332 329 328 331 331 332 332 331 333 334 333 334 334 334 335 334 334 333 333
301 302 303 303 303 304 304 306 305 305 306 305 305 307 307 307 307 308 310 312 313 315 315 314 315 316 315 314 319 321 318 317 319 320 319 318 318 317 316 316 316 316 317 320 320 321 324 324 322 321 319 320 324 325 324 323 320 317 317 318 320 321 320 321 322 323 323 321 322 324 323 328 334 333 331 330 330 332 333 332 333 332 333 334 333 332 332 332
301 302 303 303 303 304 304 306 308 309 309 307 305 307 309 308 309 310 312 314 314 314 314 314 315 317 316 317 320 320 316 316 317 318 318 318 316 314 315 314 315 317 319 320 320 321 323 321 321 326 325 321 322 323 326 330 325 320 322 323 321 322 321 321 322 324 326 326 326 324 325 330 334 335 333 333 333 332 332 333 334 333 333 334 333 332 332 333
Wind_Speed
16 16 16 15 14 13 14 14 15 17 18 19 20 21 21 22 21 20 21 20 19 19 19 20 18 16 15 15 16 18 19 18 15 16 21 20 15 13 14 11 11 13 15 16 12 13 16 15 14 14 12 12 14 17 17 18 20 14 7 5 6 6 6 5 6 7 5 7 9 14 14 6 2 4 9 3 5 4 1 11 8 1 3 16 22 24 36 36
16 15 16 16 15 15 15 15 15 15 16 16 17 18 19 20 21 21 21 21 20 19 19 19 18 17 15 15 15 19 20 18 17 21 23 17 13 17 19 16 12 11 14 18 16 16 18 14 14 14 15 17 16 17 16 16 19 11 4 5 8 6 6 8 10 11 11 10 12 12 4 4 6 5 5 2 4 7 3 11 14 15 20 21 26 32 37 38
16 15 16 16 15 15 15 16 16 16 16 15 15 15 16 17 18 19 20 21 20 20 20 18 18 18 15 14 15 18 20 19 19 21 20 14 16 19 19 17 17 14 13 17 17 18 18 13 13 16 19 17 17 18 15 16 16 11 8 5 7 7 8 15 17 18 20 16 16 11 2 6 8 10 4 1 3 4 3 9 15 22 27 28 33 38 38 39
16 16 16 16 15 15 15 16 16 17 17 16 16 15 15 15 15 16 18 19 20 20 20 19 18 18 15 14 14 16 18 18 15 13 10 8 11 16 18 17 18 17 15 16 18 20 18 15 14 18 20 14 17 20 14 16 14 9 11 6 5 8 8 18 24 25 29 24 19 8 4 3 3 9 8 5 3 1 4 11 20 25 33 35 37 40 39 41
17 17 17 16 16 15 16 16 16 16 17 17 18 17 16 16 15 15 16 17 18 19 20 20 19 18 17 13 13 15 14 8 4 0 3 4 1 9 16 17 18 19 19 17 19 22 20 18 16 17 17 12 14 15 13 21 18 8 10 11 10 11 8 16 26 28 31 27 22 11 3 4 6 6 6 5 4 2 7 11 25 31 34 36 39 42 41 43
19 19 18 18 17 17 17 16 16 17 17 17 18 19 18 18 16 15 15 15 16 18 19 20 19 18 17 14 13 12 7 2 4 5 5 7 6 4 8 14 18 20 21 20 21 22 20 19 15 15 13 9 10 10 12 22 21 9 8 12 17 19 14 17 25 26 27 22 15 7 5 3 5 2 6 9 7 5 11 7 20 32 31 34 39 43 43 43
19 19 19 18 18 19 19 18 17 17 17 18 18 18 18 18 18 16 15 15 16 16 17 19 18 18 18 16 15 11 12 12 5 5 9 11 11 9 6 9 15 20 22 22 24 22 19 19 16 15 10 6 9 11 14 21 21 13 7 9 16 22 20 25 31 26 25 20 12 6 8 8 5 2 6 12 12 8 12 10 18 32 32 36 40 42 43 41
19 19 19 18 18 19 19 20 19 19 18 18 18 18 17 17 18 18 17 15 15 15 15 17 17 17 16 16 15 11 18 18 6 9 11 10 9 7 5 5 9 18 23 23 25 23 20 19 19 16 7 6 10 11 15 16 15 13 11 11 13 18 21 28 32 29 26 20 17 12 5 7 10 9 6 13 15 8 12 13 23 34 34 36 38 39 39 39
18 18 18 18 18 19 19 20 19 20 20 19 19 18 17 17 17 18 18 16 14 14 15 15 15 15 14 14 13 13 21 21 8 6 5 6 7 6 6 4 4 12 20 24 25 22 19 19 20 18 9 10 12 12 16 13 8 11 14 15 13 15 20 23 25 26 25 16 11 8 4 5 12 14 9 14 16 9 15 13 30 35 33 34 33 36 37 39
19 18 18 18 18 19 20 20 19 19 19 19 20 19 18 17 17 18 19 17 15 14 14 14 15 14 13 13 12 13 20 21 11 13 10 3 3 3 6 6 7 10 15 21 24 23 22 20 19 20 15 13 12 11 16 13 10 14 17 18 16 16 20 23 21 22 23 16 13 9 3 7 13 12 5 11 13 14 20 9 33 35 31 32 31 34 36 38
19 19 19 19 19 20 20 20 19 20 19 18 18 19 19 18 17 17 19 18 15 14 14 14 14 14 14 15 16 16 18 16 13 13 11 5 4 5 8 9 10 12 13 17 22 23 24 22 19 19 13 10 12 12 15 16 16 20 19 15 17 19 19 21 20 20 17 12 15 14 6 7 11 10 8 13 14 17 23 12 33 32 30 31 29 32 33 35
20 19 19 20 20 20 21 20 20 20 20 19 18 18 18 18 18 18 18 18 15 14 13 14 13 15 16 19 25 26 22 16 14 13 11 11 11 10 10 11 11 14 16 17 20 21 22 24 23 20 14 9 9 8 11 18 20 21 17 9 11 14 15 18 18 19 13 5 9 7 2 6 8 10 14 19 19 19 25 17 31 30 30 31 30 31 31 34
20 20 20 20 20 20 21 21 21 20 20 20 19 19 18 18 18 18 18 18 16 13 13 13 14 16 17 22 30 30 28 26 23 22 17 15 16 15 14 13 11 13 16 18 19 19 20 23 24 25 23 14 8 7 10 15 18 16 12 6 6 8 9 14 16 17 13 8 9 5 2 7 7 13 20 22 22 25 26 18 30 31 28 28 27 30 29 28
21 21 21 21 21 21 21 21 21 21 20 20 20 20 19 18 18 19 18 19 17 13 13 14 14 16 17 23 29 29 29 29 29 28 22 18 19 18 17 12 10 12 14 16 18 17 18 21 24 25 26 20 13 13 12 12 12 8 7 5 4 5 4 8 11 12 11 11 16 10 4 8 6 12 25 27 24 27 25 19 29 26 22 21 18 17 13 10
21 21 21 22 22 22 22 21 21 20 20 20 21 20 19 18 18 19 19 19 17 13 13 15 15 14 16 23 27 24 22 23 26 26 24 21 19 19 18 12 11 13 14 15 15 15 14 17 24 22 19 21 18 12 7 6 6 4 4 5 3 4 3 4 8 11 11 10 17 14 5 7 6 10 21 28 30 28 15 15 25 24 24 22 18 16 12 8
22 22 22 22 23 24 24 23 21 20 19 19 21 21 19 17 17 18 19 19 17 12 12 14 13 11 12 16 18 19 22 24 22 21 25 21 20 22 18 13 12 13 14 15 14 14 13 14 20 22 17 15 11 7 4 5 5 4 5 4 4 5 3 4 6 10 14 11 12 13 7 4 6 11 10 15 25 19 11 24 25 24 25 21 16 16 15 15
22 22 21 22 23 26 26 24 22 19 17 18 21 20 17 16 17 18 18 18 16 12 11 12 11 11 15 17 17 21 25 26 21 21 27 22 21 24 20 15 14 13 14 17 16 16 17 15 14 16 15 9 5 5 5 5 5 3 4 4 5 5 4 5 6 10 14 14 11 11 11 6 5 7 5 7 10 17 25 24 24 26 25 21 20 21 20 19
21 21 21 22 24 26 25 23 21 18 17 17 20 19 15 14 15 16 18 17 14 10 10 14 11 8 13 20 20 20 20 20 21 22 26 21 20 25 23 18 14 13 16 16 18 19 17 14 10 6 8 8 6 7 6 6 6 4 5 5 5 6 7 8 8 9 12 15 13 10 12 11 5 2 7 10 19 29 25 22 26 27 27 25 25 24 21 19
21 21 21 23 25 26 25 23 20 18 18 18 18 18 15 12 12 15 16 14 10 7 5 11 17 8 6 14 18 18 18 14 17 19 20 19 19 24 24 22 18 18 16 12 13 19 13 8 8 6 7 9 9 9 7 7 8 8 7 6 6 7 7 8 9 10 11 13 15 12 11 12 7 5 5 10 25 28 22 24 25 24 27 28 29 27 24 23
22 22 22 25 26 26 24 22 19 17 18 18 17 16 13 10 7 7 9 12 17 18 13 13 22 22 16 20 24 21 19 11 14 19 20 20 21 24 25 25 22 18 14 8 9 17 14 7 8 9 8 11 12 11 9 9 11 10 8 7 10 9 8 10 11 12 11 11 14 16 12 11 11 8 7 12 22 21 17 20 20 22 25 26 29 28 25 24
22 22 24 26 26 24 23 22 18 16 17 15 14 13 11 9 7 7 12 11 18 23 25 25 23 27 26 28 29 24 21 19 19 18 18 23 26 23 23 23 16 10 11 11 10 14 15 9 9 10 9 11 13 12 11 11 13 12 8 7 7 9 10 12 15 14 12 10 12 16 12 9 12 9 9 13 14 14 15 18 19 22 23 23 27 26 23 20
23 23 25 26 24 23 22 21 17 15 15 14 13 12 14 14 13 16 18 12 17 22 27 30 28 29 31 33 34 27 19 18 21 19 14 21 26 22 19 19 12 7 9 12 9 10 12 9 9 11 10 11 12 13 12 11 13 12 8 6 5 6 8 11 16 15 10 9 9 15 12 7 12 12 11 13 10 14 21 23 25 27 25 24 27 27 24 21
24 24 26 24 24 24 22 19 16 14 13 12 12 13 16 17 17 21 17 10 15 23 25 27 28 29 32 36 35 27 19 15 17 20 17 17 22 23 19 14 11 10 10 12 11 9 8 8 10 12 12 13 11 13 14 11 10 9 7 6 6 7 7 7 12 13 9 9 6 13 12 6 8 8 6 8 12 16 18 23 27 29 28 27 28 29 27 26
23 25 25 23 23 24 21 16 12 11 12 12 14 16 17 18 19 19 14 7 8 17 24 26 25 28 32 33 28 19 17 17 17 19 18 17 20 19 16 14 12 10 11 15 15 10 6 8 13 14 13 15 12 12 15 10 7 9 9 7 7 10 10 8 9 7 7 9 6 10 9 4 7 9 5 6 16 17 16 21 21 21 25 26 26 29 28 26
23 24 24 22 21 23 20 12 8 11 13 13 15 15 14 14 16 14 9 4 5 11 19 22 23 27 31 29 25 19 13 17 24 24 20 21 21 14 11 14 13 9 12 16 15 10 7 11 17 16 13 15 13 12 15 11 6 8 10 10 11 13 12 13 12 3 6 7 4 8 5 4 6 12 10 7 12 11 11 15 15 17 22 23 24 29 28 24
22 24 24 21 20 22 17 9 8 11 11 13 13 11 10 8 9 6 2 2 4 6 8 15 17 19 23 23 23 20 11 16 29 29 23 23 25 17 8 10 11 10 12 12 10 6 6 13 17 15 13 15 14 11 14 14 7 6 9 10 14 16 14 14 12 2 5 6 5 6 5 1 3 7 9 9 12 10 9 9 12 17 21 20 21 24 25 22
21 23 23 21 20 20 15 10 10 10 10 13 11 9 9 6 2 3 2 3 4 4 5 15 15 12 17 20 21 16 5 11 22 26 25 22 21 20 13 7 8 9 9 8 7 6 9 15 16 15 14 13 13 11 12 15 9 6 8 11 13 15 16 15 10 4 5 5 5 6 7 5 2 3 5 10 12 10 9 8 11 17 21 20 19 20 22 22
21 22 22 20 19 16 12 12 12 11 11 12 8 7 8 6 0 3 1 3 2 3 2 7 11 11 14 19 24 19 7 4 8 17 27 22 17 18 13 9 9 9 11 9 7 8 10 14 16 17 14 10 11 10 11 14 11 7 9 12 12 12 14 12 7 5 2 4 5 5 7 5 2 3 6 10 11 9 9 10 11 15 21 23 22 22 23 24
22 23 22 20 18 11 8 12 12 11 12 10 7 7 7 5 1 1 2 4 2 5 8 1 6 9 12 14 21 22 14 8 4 10 20 20 19 18 12 11 11 10 13 12 6 8 9 13 17 17 13 9 10 11 12 13 9 7 10 12 11 10 9 7 6 5 1 3 6 6 7 5 1 4 7 7 7 8 9 9 10 14 22 24 24 26 25 25
23 25 23 21 19 12 8 12 11 10 12 10 7 7 7 3 1 1 3 3 3 6 8 5 3 4 11 11 12 16 15 13 10 10 16 17 19 19 14 13 10 6 11 12 9 9 11 16 17 14 13 10 10 12 13 12 9 9 12 10 8 7 4 4 5 2 2 2 7 8 9 7 3 4 6 7 10 13 12 9 10 13 20 23 25 28 27 26
24 25 24 22 18 12 10 10 8 10 12 9 8 8 7 2 1 2 3 1 2 5 6 4 6 6 4 8 9 13 11 12 12 10 12 12 13 14 10 8 7 4 7 8 10 11 13 15 12 12 17 14 9 11 13 13 10 9 9 6 5 5 3 2 3 1 2 4 6 9 9 7 5 5 7 11 13 16 16 14 14 14 19 23 25 30 31 31
26 25 22 19 16 13 12 8 4 8 11 9 8 7 5 1 1 3 2 2 2 2 3 2 6 10 8 6 7 13 10 11 13 10 10 10 8 10 9 6 5 5 6 8 9 10 11 11 9 10 18 18 10 8 11 11 10 10 7 5 4 3 3 3 3 2 2 5 5 8 6 4 5 6 13 17 12 14 17 17 20 20 22 25 27 31 35 36
26 22 17 14 13 13 11 5 4 8 9 7 6 4 1 2 2 3 1 2 2 1 0 3 6 7 8 8 5 13 12 12 12 11 12 11 7 8 10 9 7 6 5 7 7 7 6 9 12 11 14 18 14 8 9 8 8 10 8 5 5 4 4 4 3 2 2 5 5 2 3 2 5 5 15 19 14 19 23 24 29 30 30 32 33 36 37 38
23 17 12 10 10 10 7 3 4 10 9 5 4 2 2 4 3 1 2 1 1 2 2 4 7 9 5 5 6 8 11 11 12 11 11 9 6 6 9 11 14 9 3 5 6 6 6 7 14 12 9 16 16 9 8 6 6 9 8 5 4 4 4 3 2 3 3 4 5 2 3 3 5 4 12 17 16 23 27 28 32 31 32 35 34 36 37 35
20 12 9 9 8 7 5 3 5 10 8 3 3 2 3 4 2 1 2 1 2 3 4 7 8 7 4 5 8 8 9 9 12 12 9 9 8 9 9 11 16 12 4 5 5 7 7 6 11 11 7 14 14 8 9 7 5 7 7 5 6 5 5 3 3 4 4 1 4 1 1 4 5 3 5 14 14 17 22 26 30 27 29 33 32 33 35 33
18 11 8 9 7 6 5 4 6 10 8 2 2 3 3 3 2 2 1 1 2 3 6 8 5 3 2 3 6 9 10 9 11 11 8 11 11 12 11 9 13 13 8 5 3 6 7 4 11 13 9 15 16 10 11 10 5 5 6 6 6 4 6 5 3 2 4 2 3 3 3 4 3 5 3 14 13 12 17 22 26 28 30 32 31 33 33 32
18 14 12 11 8 7 6 6 8 11 7 3 3 4 4 4 3 3 2 3 6 4 4 5 1 1 2 4 4 7 10 9 10 8 7 10 10 12 12 9 12 14 13 10 3 4 5 3 12 17 10 16 21 11 6 8 8 6 5 6 4 3 2 4 4 2 3 2 3 4 5 3 0 3 3 15 15 12 15 17 20 25 28 29 30 33 34 35
18 17 14 10 6 7 7 8 10 11 6 3 6 7 6 5 4 4 3 5 8 5 3 3 0 0 1 3 4 7 10 8 7 7 6 8 7 11 14 10 11 15 17 16 7 3 5 3 10 16 9 12 14 5 3 5 7 7 6 6 6 4 3 1 3 4 5 3 2 4 5 3 2 3 5 13 15 14 15 16 18 20 23 25 27 31 32 33
17 14 9 6 3 5 7 8 11 10 6 3 5 5 6 5 6 8 7 6 5 4 4 2 2 2 2 3 5 8 10 8 6 6 6 5 5 11 14 9 10 15 17 15 7 3 5 3 6 12 9 6 5 3 2 5 5 6 6 6 5 4 3 3 3 4 5 4 2 3 4 3 3 5 7 9 14 17 16 16 17 17 22 27 29 31 32 32
14 8 5 3 2 3 5 8 10 8 4 3 5 5 6 6 8 12 11 8 5 4 4 3 2 2 3 4 6 6 8 9 7 6 5 6 6 9 15 12 10 13 14 13 8 3 4 3 4 7 8 6 5 5 6 5 4 6 5 6 6 3 3 3 2 3 5 4 4 2 3 5 5 6 9 10 16 19 19 17 16 18 25 30 33 34 34 35
12 5 3 1 3 6 7 8 7 4 3 4 6 7 8 7 8 11 10 9 9 8 7 6 4 4 4 4 5 6 4 7 9 7 4 8 8 6 14 18 11 9 10 11 9 3 4 4 5 5 5 6 6 5 7 6 6 6 3 4 6 4 4 4 2 2 4 4 5 5 4 6 5 3 7 12 16 18 21 20 17 22 30 33 35 37 38 39
10 4 5 6 7 8 6 5 4 4 4 5 7 9 11 8 6 9 8 9 10 9 9 7 5 6 5 4 5 6 6 4 8 8 4 9 10 5 16 26 18 11 8 6 5 3 3 4 6 6 5 5 6 8 11 11 8 9 5 4 6 5 4 5 3 4 3 3 5 5 3 6 6 4 5 10 13 19 26 26 21 26 34 36 36 36 38 40
10 11 13 13 9 9 5 3 4 4 4 6 9 12 13 9 6 7 7 7 7 5 4 5 5 6 5 5 7 7 6 4 6 8 5 8 10 10 18 28 23 14 7 4 4 3 2 3 5 6 4 5 6 6 10 11 6 7 7 5 5 6 5 5 4 5 3 3 4 4 3 5 7 5 2 8 10 16 24 27 25 25 28 33 35 35 37 38
16 17 15 9 6 8 4 3 3 3 4 7 9 11 13 11 8 8 7 5 4 2 2 3 4 6 6 6 7 8 7 4 5 9 6 6 10 16 22 27 24 14 6 6 6 3 3 2 5 6 4 5 6 4 6 10 6 3 5 6 5 5 8 7 4 2 1 3 5 6 3 6 6 5 7 12 11 11 15 23 28 27 26 30 33 33 36 37
14 11 7 5 6 9 7 5 4 4 5 7 9 11 12 9 6 8 9 7 5 4 3 4 6 7 8 7 8 9 10 6 4 8 8 6 9 14 20 27 25 13 6 12 12 6 5 2 4 7 6 6 7 5 4 5 3 1 3 7 7 6 10 10 3 3 2 4 3 6 4 5 5 6 10 12 12 10 12 18 25 27 28 30 31 33 36 37
9 4 3 4 6 9 10 10 7 5 4 5 6 7 7 5 6 11 11 7 7 7 5 6 8 8 8 7 6 7 10 9 7 8 8 5 6 9 17 26 24 15 10 20 20 7 2 2 3 6 5 5 5 3 2 4 2 2 5 7 7 7 7 7 4 4 4 2 1 3 5 3 3 6 9 8 10 12 10 13 17 20 23 26 29 32 35 36
7 3 3 4 5 6 7 8 6 3 3 3 3 4 5 6 7 8 6 4 5 6 6 7 8 7 6 5 4 4 8 10 8 7 7 5 3 6 16 23 21 18 13 16 18 7 4 2 4 3 3 5 5 4 5 7 5 3 5 6 7 9 5 6 5 6 5 4 3 5 6 7 3 3 9 8 10 12 11 13 19 22 25 28 29 32 34 34
5 5 7 7 4 2 3 6 6 4 5 3 2 3 5 7 8 6 4 3 4 7 5 4 7 10 8 6 5 4 6 7 3 3 6 6 5 6 13 15 14 15 11 8 10 6 4 3 6 3 3 3 6 8 7 8 7 5 6 7 8 11 7 6 6 6 7 6 4 5 7 7 6 6 11 10 10 13 15 20 26 28 30 32 32 31 32 33
7 7 8 8 6 8 13 15 12 7 7 5 3 3 4 5 8 7 5 2 2 6 6 3 4 6 6 5 4 3 4 4 3 3 5 2 2 4 8 8 8 11 9 5 4 3 4 2 2 3 2 4 5 9 11 13 10 7 8 8 8 11 8 7 5 5 7 7 6 7 7 4 5 6 11 13 16 19 21 25 28 29 30 32 32 32 32 33
10 9 11 13 12 14 18 15 7 4 4 3 3 4 3 4 6 7 5 3 3 2 2 4 6 8 7 6 4 2 3 4 5 7 4 4 2 3 5 3 5 8 7 4 2 4 4 1 1 4 1 4 3 1 8 15 13 10 11 10 8 10 8 6 3 3 4 6 4 7 6 1 3 4 10 14 20 22 20 21 24 26 29 32 30 29 30 29
14 14 16 15 10 9 13 10 2 2 1 1 2 2 1 3 5 6 6 5 4 2 3 6 7 7 6 4 2 4 7 7 9 11 10 7 5 2 4 3 5 6 5 5 3 3 4 2 4 4 1 4 2 7 4 4 8 9 11 10 8 8 6 5 4 2 4 6 4 6 4 0 1 7 9 10 15 17 15 17 21 24 28 31 29 27 27 28
18 19 19 14 7 6 10 9 4 2 1 1 3 3 3 5 6 7 5 3 2 2 4 7 5 5 5 3 2 6 11 13 17 20 19 18 12 2 5 6 7 5 3 5 4 2 4 3 3 2 2 2 2 6 5 6 6 4 8 7 6 7 5 4 4 4 4 5 6 3 3 6 6 9 10 7 8 11 14 19 24 25 28 32 31 30 31 33
Wind_Direction
341 339 339 338 335 328 321 313 306 302 300 299 297 294 292 290 290 289 290 293 299 305 309 313 316 320 324 330 330 322 313 297 283 268 256 251 241 220 210 201 197 210 214 211 204 200 195 190 196 196 207 225 234 241 241 244 241 226 207 225 238 235 233 234 247 251 259 269 258 263 269 245 242 114 127 141 122 134 15 67 76 313 109 171 188 182 171 165
330 332 332 332 334 332 332 328 323 318 312 311 307 304 300 295 289 286 286 286 290 295 300 306 309 312 319 328 329 325 318 306 297 274 257 253 247 229 215 206 202 206 208 209 204 197 189 185 197 201 217 227 225 230 234 237 238 227 187 211 229 235 243 252 258 262 266 271 275 283 323 33 349 30 123 203 136 160 173 94 97 104 119 152 166 167 166 164
320 324 323 324 326 326 326 325 325 323 320 319 316 316 313 308 300 291 286 283 285 287 290 296 303 308 313 324 328 327 322 314 304 280 269 263 247 235 224 217 214 210 205 205 203 197 190 190 203 206 214 225 224 222 224 228 235 233 218 220 225 223 247 260 260 265 270 269 274 281 46 49 348 334 348 25 99 156 172 118 118 116 129 148 154 162 164 166
318 318 315 314 315 314 314 316 319 318 319 319 316 319 318 317 314 306 297 288 284 282 284 287 296 304 308 320 324 328 330 322 306 283 286 282 242 234 232 227 220 214 206 203 202 199 201 218 229 217 210 218 224 220 222 219 224 233 224 227 229 217 228 248 255 266 270 269 274 272 129 91 313 298 326 2 4 303 236 170 158 147 149 156 157 164 167 169
316 317 316 313 310 306 304 303 306 308 312 313 314 317 316 318 316 316 312 300 289 281 281 282 288 297 303 312 313 326 336 330 317 339 17 14 220 227 229 228 225 218 212 209 207 203 207 224 240 237 216 210 221 219 227 220 217 235 236 233 232 240 241 237 243 250 258 266 273 270 224 201 182 230 291 294 267 255 263 197 172 168 164 168 167 167 169 170
316 316 314 315 313 310 307 304 300 297 298 301 309 312 312 315 313 316 316 314 303 285 278 278 282 290 297 304 303 316 315 244 117 90 34 11 356 308 245 231 225 218 216 215 212 209 213 224 237 246 225 205 216 214 226 223 219 233 247 235 224 233 251 257 253 249 258 272 271 280 318 288 135 180 282 272 260 240 271 252 176 178 177 177 171 168 171 169
323 318 315 313 310 311 311 310 307 300 296 292 296 303 306 309 309 312 313 318 316 299 283 275 278 284 291 299 295 297 266 234 142 52 2 351 337 332 297 240 226 217 213 212 211 209 214 225 234 240 231 209 218 217 227 227 224 230 242 240 225 224 233 251 261 263 270 281 281 321 356 333 17 17 283 280 275 232 261 273 180 178 175 171 169 169 169 164
327 325 322 318 314 312 310 310 309 307 304 297 291 292 298 302 303 307 307 312 317 315 297 276 276 280 288 298 295 299 263 228 135 19 353 347 329 332 304 242 226 217 210 210 209 205 211 226 232 231 235 229 220 217 229 232 229 229 232 238 234 231 229 239 252 261 267 270 275 296 348 324 316 307 288 278 275 225 250 251 176 170 166 166 167 167 165 164
329 328 326 325 322 318 314 311 310 308 307 304 299 293 291 293 295 299 300 305 311 318 310 283 275 277 284 290 289 291 253 210 149 342 317 339 324 315 296 261 241 223 213 213 208 205 214 227 228 223 230 241 231 222 226 231 234 228 227 232 234 239 242 245 249 254 259 251 237 264 310 288 284 291 290 275 274 241 259 230 168 164 161 165 164 163 165 169
329 329 328 327 325 322 320 316 313 310 307 304 303 299 293 285 285 291 293 299 305 311 315 293 273 274 282 276 273 272 242 214 217 259 245 280 327 254 260 256 264 250 226 220 212 209 217 224 223 224 236 247 246 236 226 225 235 237 232 229 230 238 246 254 261 257 259 248 204 190 227 248 252 264 258 267 264 241 268 223 162 163 158 162 163 165 172 173
329 329 328 327 325 323 320 319 316 313 310 305 303 301 297 288 282 282 286 293 299 303 311 304 279 271 276 265 255 251 240 225 221 230 226 214 185 196 230 236 243 244 236 227 221 215 217 222 224 231 239 241 250 258 248 241 244 249 246 233 228 232 239 247 260 263 266 255 210 186 179 227 241 249 229 244 244 234 260 214 158 160 156 161 165 169 175 176
329 328 326 325 324 321 319 318 316 313 311 307 303 301 298 294 287 281 283 287 294 300 305 310 287 268 274 266 252 248 252 250 232 224 223 225 225 220 232 235 228 230 232 230 229 224 220 222 229 241 245 236 245 264 266 255 253 258 257 250 230 227 235 234 242 257 265 261 213 180 207 239 226 245 243 239 233 233 249 207 155 157 158 160 166 170 176 180
328 326 325 323 321 319 318 316 314 312 309 306 303 301 298 296 291 285 282 281 288 296 297 304 291 271 272 267 257 256 265 268 266 260 239 240 250 235 229 236 235 236 236 232 229 227 225 225 232 246 251 250 246 240 262 259 252 259 256 257 245 235 239 222 225 245 254 259 234 185 238 247 223 238 245 244 230 225 240 205 155 158 158 155 164 170 174 180
327 326 324 322 320 316 315 314 312 309 306 304 302 300 298 296 293 289 285 282 283 286 288 293 290 277 270 268 265 266 271 273 276 267 241 247 260 241 228 234 253 254 246 239 228 222 225 228 232 243 251 254 261 256 263 262 244 245 249 250 228 226 240 209 209 224 242 250 225 202 231 247 235 229 232 241 235 225 233 199 156 144 129 119 119 122 117 126
327 325 323 321 320 317 316 314 310 307 303 302 300 299 299 296 294 289 286 283 281 282 285 286 286 280 271 272 274 275 277 276 275 259 239 250 256 239 228 231 262 263 252 242 232 228 228 228 229 233 246 250 258 265 269 268 245 206 220 246 221 213 240 230 216 207 218 233 208 199 245 244 238 247 233 231 232 229 219 152 137 123 114 111 99 94 79 97
327 325 324 323 321 321 320 316 312 308 302 299 298 297 298 298 295 289 284 281 282 283 279 284 285 271 264 277 285 283 272 264 264 244 228 238 242 232 224 230 257 257 250 241 236 244 245 244 232 223 233 243 244 247 255 272 259 210 191 213 227 216 227 257 255 222 208 215 205 199 232 240 231 253 242 223 225 216 118 101 115 120 126 130 126 137 147 158
330 328 327 326 324 323 321 318 316 308 301 297 294 296 299 299 296 288 281 276 278 279 270 274 284 273 260 268 281 278 265 253 247 230 220 225 231 226 223 231 244 243 243 238 237 246 245 249 237 216 221 231 222 209 224 239 236 235 197 202 232 215 210 220 249 245 211 206 211 203 218 235 233 226 150 143 155 112 93 97 112 119 128 134 134 143 147 150
333 332 331 330 326 323 321 319 317 308 301 294 293 301 302 297 298 292 280 273 274 279 274 256 256 286 263 252 263 277 279 261 246 233 223 224 227 224 223 222 228 238 236 228 231 238 235 236 233 206 205 214 218 206 206 213 209 218 198 196 235 226 225 215 216 238 213 202 209 207 216 222 230 146 112 114 104 99 101 106 113 123 131 131 133 141 145 145
333 332 331 330 326 324 321 319 316 309 302 296 300 307 304 299 298 290 277 265 245 232 259 229 210 212 262 257 263 288 309 281 245 241 228 216 219 223 222 219 228 241 233 211 215 220 218 225 224 212 202 204 213 211 206 210 211 220 206 189 209 222 240 234 224 228 206 195 205 209 214 208 186 133 123 111 103 105 112 112 114 122 125 128 134 142 147 151
332 329 329 329 328 326 323 321 316 308 303 303 309 312 312 309 289 287 278 246 231 226 237 232 210 214 249 272 269 285 317 297 245 248 234 211 205 210 214 218 229 242 231 201 195 204 206 217 221 212 202 199 208 216 215 218 228 234 222 204 202 209 236 241 242 235 203 189 204 208 211 198 174 157 162 134 112 109 115 117 119 118 122 134 140 144 150 155
330 327 327 329 329 328 326 324 317 309 306 304 308 304 293 283 261 311 328 282 253 244 243 248 236 231 252 271 272 285 311 303 281 267 237 210 198 192 202 209 216 236 222 202 192 195 205 221 218 209 204 198 204 214 218 221 233 239 232 227 209 203 222 229 240 241 205 193 202 203 212 197 174 163 161 155 133 130 139 135 130 124 128 139 145 152 158 156
329 326 328 331 332 332 330 327 324 317 311 304 301 285 271 273 271 293 317 305 274 264 250 250 249 247 256 262 266 277 290 290 288 276 236 207 196 184 189 198 202 220 211 202 195 188 207 222 208 202 206 207 202 207 219 225 231 240 238 247 251 223 223 223 238 247 211 195 194 191 210 206 179 171 164 171 158 151 157 151 143 138 139 146 152 157 159 158
328 327 332 335 334 334 332 330 333 330 323 320 310 288 279 284 279 281 295 298 283 275 258 248 246 247 253 254 256 266 270 266 278 268 239 210 202 189 185 193 199 209 206 203 202 191 204 212 199 201 206 210 204 196 214 231 233 240 230 229 258 249 242 225 238 248 204 181 168 179 204 212 170 159 147 148 122 128 147 146 144 148 152 155 157 158 159 159
327 327 334 337 332 332 331 331 346 356 348 335 315 295 286 283 278 280 284 282 282 273 257 244 237 239 245 247 247 253 254 250 260 259 235 215 211 199 192 196 195 207 212 204 206 209 207 185 192 209 207 204 205 193 205 222 230 239 232 223 241 247 252 246 240 242 181 182 165 159 191 231 152 138 136 121 107 115 136 138 142 148 151 156 158 161 160 159
325 326 334 336 329 329 330 333 351 357 345 323 307 302 298 286 279 282 280 269 264 264 254 236 227 235 240 242 242 242 253 252 246 247 241 221 209 204 205 199 194 213 212 200 205 218 209 181 191 212 208 197 204 201 203 208 217 239 234 225 235 248 256 252 248 234 138 202 199 135 158 260 170 146 155 142 110 121 139 136 143 143 147 155 159 165 164 161
324 325 332 334 330 331 333 334 332 332 330 315 314 326 327 305 278 263 246 274 263 249 223 201 207 227 231 230 228 226 250 259 245 245 247 225 207 207 217 197 197 216 210 196 202 221 204 184 192 210 205 196 207 212 204 201 204 233 230 223 233 245 256 264 267 241 142 209 218 146 142 200 188 160 157 140 122 138 149 140 149 149 152 156 157 167 169 162
325 325 330 330 331 334 329 327 333 332 323 316 327 348 343 326 259 166 170 258 263 257 183 170 181 201 208 209 200 193 227 255 245 246 240 230 218 216 220 206 196 207 208 197 196 210 200 188 191 204 205 199 207 214 202 196 201 223 224 226 232 239 249 264 279 255 181 189 209 182 147 131 181 192 148 124 117 131 149 150 155 158 159 154 150 159 163 160
327 325 327 326 329 334 323 322 334 341 328 318 330 353 351 346 351 143 208 268 280 321 314 167 179 193 196 193 184 188 227 231 227 238 228 230 233 221 220 219 202 199 210 212 193 192 200 193 186 195 207 206 205 212 204 197 203 216 221 232 235 234 241 252 271 274 203 155 216 205 147 138 186 170 126 117 123 137 155 164 166 167 165 154 147 151 157 162
328 324 326 323 325 333 322 312 318 338 340 330 333 346 351 355 18 117 246 278 322 352 344 326 182 184 185 179 178 194 230 242 230 228 218 227 237 230 233 227 210 202 217 232 216 180 202 210 192 190 206 209 199 208 211 203 200 210 225 237 238 233 240 244 253 276 24 147 228 217 166 145 140 172 150 136 151 166 170 177 179 174 168 158 151 155 158 161
325 323 325 319 319 328 314 297 307 337 341 331 334 343 334 331 49 344 263 282 346 348 338 305 250 195 183 176 176 194 220 242 255 232 211 224 237 236 244 242 234 219 216 235 234 199 205 215 204 194 203 206 196 201 215 215 196 201 225 240 242 239 242 241 245 268 71 225 241 218 185 160 179 216 175 173 187 177 168 174 181 176 169 164 159 160 162 161
323 322 321 313 310 313 299 289 313 336 330 329 339 336 323 318 92 288 267 261 325 327 327 292 324 341 216 191 184 191 210 237 246 233 209 216 232 228 230 241 249 236 216 222 225 216 206 207 209 194 193 200 201 196 213 221 205 205 221 217 221 245 251 254 274 53 110 255 233 202 190 166 183 224 203 209 200 172 167 173 176 173 168 170 167 163 163 163
325 321 313 305 299 293 287 281 306 319 317 327 333 329 327 322 216 236 259 325 280 300 353 302 334 348 325 292 205 183 198 229 231 235 219 204 210 209 203 208 192 189 209 199 203 218 209 201 204 187 186 197 204 189 205 219 206 207 218 186 170 211 217 219 244 215 200 260 230 182 179 197 210 206 199 208 199 169 172 173 170 168 163 167 170 166 162 164
329 322 307 299 292 286 285 290 311 305 306 319 324 321 299 266 259 232 253 322 255 219 73 259 284 308 315 310 231 179 190 221 224 234 229 205 194 204 213 228 219 205 206 188 190 207 205 199 198 187 182 197 205 189 194 209 191 200 211 171 155 176 192 204 213 197 214 279 276 157 111 233 253 215 192 195 186 173 176 171 168 167 161 163 170 170 166 166
335 330 320 313 297 288 284 280 289 290 297 322 330 307 237 257 269 268 264 235 220 243 244 259 285 297 290 274 257 191 189 217 221 225 223 199 193 210 215 229 231 232 202 174 193 192 188 192 194 193 175 188 205 200 182 182 170 200 211 172 179 186 168 179 171 169 207 269 295 356 75 208 234 226 190 184 175 169 167 163 162 162 159 161 168 171 169 168
341 337 339 335 310 290 278 204 228 270 281 310 313 269 249 266 265 300 301 277 299 284 273 280 285 297 293 253 263 236 202 212 218 219 209 185 196 211 209 214 220 228 208 177 192 190 201 200 187 198 178 176 202 209 178 172 167 200 205 192 222 201 150 155 167 158 163 215 301 293 168 217 223 266 175 163 158 153 147 146 150 154 157 160 166 173 174 172
343 341 338 329 311 292 276 186 201 251 255 249 280 252 247 260 258 310 342 173 287 294 303 301 271 254 272 244 261 246 223 217 214 215 196 182 201 211 207 210 212 220 222 197 170 176 205 192 171 191 192 181 196 204 187 181 170 189 200 204 226 191 144 146 168 142 112 132 276 250 273 291 294 339 99 140 139 135 133 140 149 155 159 161 167 175 178 176
343 342 327 310 297 285 261 193 206 237 226 193 254 255 267 266 236 263 289 285 293 293 303 312 271 195 243 221 238 241 231 222 209 207 183 181 205 211 207 214 212 217 227 223 201 167 191 161 174 191 198 189 194 205 212 192 166 167 199 215 226 212 166 125 134 160 143 166 274 241 248 275 248 321 125 139 148 154 142 142 148 152 158 164 169 175 179 178
339 337 325 313 288 254 230 199 208 226 212 207 256 264 274 266 217 204 228 277 287 270 254 285 248 226 268 214 228 232 225 215 195 196 187 180 200 203 200 209 214 220 229 228 227 190 182 144 177 189 180 183 190 193 296 248 195 173 176 195 193 185 217 173 134 163 165 171 297 273 245 228 175 219 162 147 159 160 144 143 147 150 157 163 166 172 177 174
341 334 322 325 306 241 216 199 202 211 210 229 260 262 261 263 260 253 241 237 259 258 253 259 189 219 293 254 244 230 212 204 199 206 198 184 193 198 201 210 214 219 227 228 228 194 179 131 158 173 147 146 181 163 212 251 235 194 169 177 187 160 167 184 162 158 152 161 216 274 259 250 231 194 164 153 154 150 146 148 152 156 158 159 162 167 171 168
352 330 305 320 293 228 202 196 199 203 213 249 254 259 268 274 278 275 260 237 244 253 249 262 213 223 296 281 277 263 206 194 211 225 201 183 179 189 203 215 218 217 224 230 229 184 153 117 125 151 136 147 195 207 194 197 208 201 172 165 189 191 168 184 214 173 143 147 175 206 254 265 255 190 161 153 147 147 150 151 157 161 158 159 161 163 166 166
356 320 303 333 234 227 207 194 204 217 232 250 247 254 269 273 282 291 278 245 245 246 243 264 268 260 290 289 293 298 238 199 212 226 191 182 185 185 210 218 220 216 217 227 234 197 130 124 133 158 171 177 198 206 200 209 202 187 169 161 174 174 154 162 258 226 143 142 164 169 220 262 272 214 164 154 149 152 155 153 158 162 159 162 164 162 164 165
345 299 305 316 274 246 222 201 221 229 228 252 261 270 281 282 278 287 279 251 251 255 246 248 252 255 266 258 261 279 275 236 217 219 176 179 192 198 216 218 221 227 222 212 220 191 116 110 135 163 189 185 185 191 206 231 216 175 186 190 166 174 157 139 186 218 190 179 162 144 195 252 282 274 174 157 155 158 158 156 158 162 162 162 163 162 163 164
323 296 305 310 274 240 236 244 249 230 235 270 278 283 290 289 268 271 276 258 258 275 265 256 263 259 250 251 265 272 268 259 236 230 189 169 190 206 216 218 219 233 235 188 192 191 99 96 132 150 173 175 179 191 210 235 232 176 198 203 166 186 183 154 174 186 179 197 162 128 189 247 290 303 136 127 137 149 155 155 153 155 157 157 159 160 159 159
309 299 305 311 250 229 246 272 268 257 268 285 290 294 292 280 264 271 282 277 276 301 286 268 269 261 258 269 277 278 271 269 255 241 218 164 184 204 215 215 214 228 234 172 176 193 174 133 122 139 154 161 171 198 218 227 234 187 190 196 192 188 178 193 224 113 121 221 153 125 193 247 287 332 53 77 97 128 143 146 146 148 150 153 155 156 155 155
309 304 308 304 246 232 241 255 274 282 287 292 293 297 293 281 279 291 291 287 277 260 246 262 267 268 274 278 279 278 269 258 246 243 231 185 178 197 211 211 211 228 221 167 169 177 178 172 109 138 163 167 177 202 207 203 221 246 180 188 209 211 186 197 217 91 180 244 139 127 188 253 306 9 53 72 95 120 130 133 141 146 149 151 150 152 155 155
307 310 328 307 246 230 244 257 266 270 287 305 299 294 295 294 307 302 290 270 250 241 243 258 269 278 268 255 270 282 273 270 264 249 238 201 168 185 202 204 207 225 204 168 171 175 131 173 132 125 159 179 178 194 141 136 157 219 204 193 213 234 200 165 137 146 187 219 230 194 163 148 340 30 62 77 98 112 112 105 111 121 131 140 145 150 156 157
312 313 337 328 276 244 248 250 240 239 274 316 328 308 303 305 311 305 279 228 210 224 241 246 246 263 268 263 289 295 282 284 269 247 253 236 169 174 195 198 205 220 209 168 170 168 76 176 192 145 187 192 167 163 164 175 189 200 204 198 214 235 214 133 162 198 162 128 249 236 134 127 202 112 100 102 106 114 116 110 115 121 129 139 144 148 155 156
336 319 316 323 303 260 278 265 249 252 263 271 303 294 290 295 303 301 272 230 195 204 227 250 234 240 258 279 302 292 280 292 283 260 270 238 184 170 190 197 201 207 200 155 163 153 91 173 188 170 265 235 179 187 176 179 204 220 213 202 211 230 213 144 193 200 130 126 212 205 134 144 201 158 127 135 135 132 135 135 138 141 141 145 147 149 155 156
339 316 309 321 304 278 284 281 272 269 263 256 256 254 265 281 286 287 284 291 241 211 214 248 276 277 291 305 315 302 291 331 354 291 288 274 213 179 176 187 192 185 172 145 155 113 84 189 160 116 301 298 231 210 183 176 194 217 221 214 214 226 204 150 199 210 139 145 171 150 134 168 218 171 147 149 143 136 134 133 137 142 144 149 152 153 157 159
347 333 319 317 303 288 289 286 270 258 269 264 245 237 237 254 274 290 289 279 300 298 234 273 319 334 330 335 352 312 293 326 303 277 311 8 310 186 150 160 181 169 150 119 56 48 76 277 340 69 15 292 304 247 174 178 182 192 218 227 218 221 207 159 192 230 172 173 149 114 108 320 280 142 136 137 130 127 128 131 136 143 147 152 155 156 157 159
347 338 330 323 306 300 309 307 267 185 274 256 241 261 258 249 273 294 289 260 245 263 299 308 337 347 316 316 348 299 297 301 289 294 311 305 272 168 124 167 164 142 122 101 58 43 90 33 337 53 70 268 6 43 51 152 155 175 212 229 214 207 201 172 173 192 185 178 121 77 82 204 145 116 120 129 126 124 128 136 142 148 153 157 159 157 156 160
344 339 341 335 304 301 320 317 318 348 352 232 238 266 268 269 290 302 302 290 234 218 288 302 330 341 303 283 233 270 281 276 279 292 297 290 289 356 104 152 151 116 98 107 81 62 113 83 353 97 114 294 37 61 32 42 86 179 228 239 221 196 170 159 164 163 166 152 133 130 175 175 149 124 125 133 130 130 138 143 149 157 163 167 167 165 167 169